Showing default

COSMOS 86, 1584

Orbit data source: Space-Track

COSMOS 86, 1584 is a payload satellite owned by OKB-10 (CIS) in LEO that was launched on Sat, 18 Sep 1965 UTC via a KOSMOS 65S3 launch vehicle from the Tyuratam Missile And Space Complex (TTMTR). Payload-class satellites include a variety of spacecraft equipped with specific instruments for various scientific and technological missions. These include communications satellites like Starlink; space stations such as the ISS; scientific satellites like the Hubble; Earth observation satellites from companies like Planet Labs, Umbra, and HawkEye 360; GPS; miniature CubeSats for education and research; and military/defense satellites.

Loading next visibility...
Identifier
1584, 1965-073A
Orbit
LEO
Country
Flag of CISCIS
Related business
Manufacturer
OKB-10
Mission
Defense Communications
Bus & Motor
STRELA-1 11F610, Unknown motor
Mass
50 kg wet, 50 kg dry
Launch date (UTC)
1965-09-18 (60 years ago)
Launch vehicle
KOSMOS 65S3
Launch site
Tyuratam Missile And Space Complex (TTMTR)
Object type
Payload
Rocket body
Debris
Shape & HBR
Poly, 0.4 m
Radar Cross Section
0.731 m², Medium (>0.1 m² and < 1m²)

Expand to show TLE details & history
Last TLE update: 16 hours ago

TLE from 16 hours ago
0 COSMOS 86
1 01584U 65073A   25258.47571289 -.00000104  00000-0 -53408-4 0  9995
2 01584  56.0591 164.6973 0211528 271.6597 262.5841 12.51913900743045
Epoch: 2025-09-15T11:25Z
TLE epoch observation values (Epoch: 2025-09-15T11:25:01.593Z)
Latitude
6.71665°
Longitude
174.23719°
Altitude
1,481.761 km
Speed
7.113 km/s
True Right ascension
22h 40m 41s
True Declination
6° 40' 50"
Sunlit
Object was in full shadow at epoch
Visualization orbit readout
Latitude
Unknown
Longitude
Unknown
Altitude
Unknown
Speed
Unknown
Apparent Right ascension
Unknown
Apparent Declination
Unknown
Sunlit
N/A
Visualization observer readout
Local Sidereal Time
20:31:26
Azimuth
Unknown
Elevation
Unknown
Doppler factor
Unknown
Orbital elements
Apogee altitude
1,622.043 km
Perigee altitude
1,290.602 km
Semi-major axis
7,834.459 km
Eccentricity
0.02115
Inclination
56.0591°
RAAN
164.6973°
Arg. of periapsis
271.6597°
True anomaly
260.18932°
Mean anomaly
262.5841°
Eccentric anomaly
261.38581°
Mean motion
3.12989 °/min
Orbital period
115.02 mins
BSTAR
-0.000053408
Loading maneuver chart data...
Computing Atmospheric mass density...
Loading historical data...
Loading historical data...
Loading historical data...
Loading historical data...
Loading historical data...
Loading historical data...
Loading historical data...

Documentation

Showing up to 5 results
|